EN

Hourly Weather Abbadia San Salvatore

Today, 14 June, Monday

Time Temperature Precipitation Wind Pressure Humidity
00:00 +14°C° 0 mm 1 mps 675 mmHg 70%
01:00 +14°C° 0 mm 1 mps 674 mmHg 72%
02:00 +14°C° 0 mm 1 mps 674 mmHg 73%
03:00 +14°C° 0 mm 1 mps 674 mmHg 73%
04:00 +13°C° 0 mm 1 mps 674 mmHg 74%
05:00 +15°C° 0 mm 1 mps 674 mmHg 70%
06:00 +18°C° 0 mm 1 mps 675 mmHg 65%
07:00 +19°C° 0 mm 1 mps 675 mmHg 60%
08:00 +21°C° 0 mm 1 mps 676 mmHg 55%
09:00 +23°C° 0 mm 1 mps 676 mmHg 49%
10:00 +25°C° 0 mm 1 mps 677 mmHg 44%
11:00 +26°C° 0 mm 1 mps 676 mmHg 42%
12:00 +27°C° 0 mm 2 mps 676 mmHg 41%
13:00 +28°C° 0 mm 2 mps 676 mmHg 39%
14:00 +27°C° 0 mm 3 mps 676 mmHg 42%
15:00 +25°C° 0 mm 3 mps 675 mmHg 45%
16:00 +24°C° 0 mm 3 mps 675 mmHg 47%
17:00 +23°C° 0 mm 2 mps 674 mmHg 51%
18:00 +23°C° 0 mm 1 mps 674 mmHg 55%
19:00 +22°C° 0 mm 1 mps 674 mmHg 58%
20:00 +20°C° 0 mm 1 mps 674 mmHg 62%
21:00 +19°C° 0 mm 1 mps 674 mmHg 66%
22:00 +16°C° 0 mm 1 mps 674 mmHg 70%
23:00 +16°C° 0 mm 1 mps 674 mmHg 71%

Tomorrow, 15 June, Tuesday

Time Temperature Precipitation Wind Pressure Humidity
00:00 +15°C° 0 mm 1 mps 673 mmHg 72%
01:00 +14°C° 0 mm 1 mps 673 mmHg 73%
02:00 +14°C° 0 mm 1 mps 673 mmHg 73%
03:00 +14°C° 0 mm 1 mps 673 mmHg 73%
04:00 +13°C° 0 mm 1 mps 673 mmHg 73%
05:00 +15°C° 0 mm 1 mps 674 mmHg 67%
06:00 +16°C° 0 mm 1 mps 674 mmHg 61%
07:00 +18°C° 0 mm 1 mps 675 mmHg 55%
08:00 +19°C° 0 mm 2 mps 675 mmHg 49%
09:00 +21°C° 0 mm 2 mps 676 mmHg 43%
10:00 +24°C° 0 mm 2 mps 676 mmHg 36%
11:00 +25°C° 0 mm 2 mps 676 mmHg 35%
12:00 +26°C° 0 mm 2 mps 676 mmHg 34%
13:00 +27°C° 0 mm 3 mps 676 mmHg 33%
14:00 +27°C° 0 mm 2 mps 676 mmHg 35%
15:00 +26°C° 0 mm 2 mps 676 mmHg 37%
16:00 +26°C° 0 mm 2 mps 676 mmHg 40%
17:00 +24°C° 0 mm 2 mps 675 mmHg 48%
18:00 +23°C° 0 mm 2 mps 675 mmHg 55%
19:00 +20°C° 0 mm 2 mps 675 mmHg 63%
20:00 +19°C° 0 mm 1 mps 674 mmHg 70%
21:00 +18°C° 0 mm 1 mps 674 mmHg 77%
22:00 +15°C° 0 mm 1 mps 674 mmHg 84%
23:00 +15°C° 0 mm 1 mps 674 mmHg 85%

Day after tomorrow, 16 June, Wednesday

Time Temperature Precipitation Wind Pressure Humidity
00:00 +13°C° 0 mm 0 mps 674 mmHg 87%
01:00 +13°C° 0 mm 0 mps 674 mmHg 88%
02:00 +13°C° 0 mm 0 mps 673 mmHg 88%
03:00 +13°C° 0 mm 0 mps 673 mmHg 87%
04:00 +13°C° 0 mm 1 mps 673 mmHg 87%
05:00 +14°C° 0 mm 0 mps 673 mmHg 81%
06:00 +15°C° 0 mm 0 mps 674 mmHg 74%
07:00 +17°C° 0 mm 0 mps 674 mmHg 68%
08:00 +19°C° 0 mm 0 mps 675 mmHg 61%
09:00 +23°C° 0 mm 1 mps 675 mmHg 55%
10:00 +25°C° 0 mm 1 mps 675 mmHg 48%
11:00 +25°C° 0.3 mm 1 mps 675 mmHg 48%
12:00 +25°C° 0.3 mm 2 mps 675 mmHg 47%
13:00 +26°C° 0.3 mm 2 mps 675 mmHg 46%
14:00 +25°C° 0.3 mm 2 mps 675 mmHg 51%
15:00 +24°C° 0.3 mm 3 mps 675 mmHg 55%
16:00 +22°C° 0.3 mm 3 mps 674 mmHg 60%
17:00 +20°C° 0.7 mm 2 mps 674 mmHg 67%
18:00 +20°C° 0.7 mm 1 mps 674 mmHg 74%
19:00 +19°C° 0.7 mm 1 mps 674 mmHg 81%
20:00 +18°C° 0.3 mm 1 mps 674 mmHg 84%
21:00 +16°C° 0.3 mm 1 mps 674 mmHg 87%
22:00 +15°C° 0.3 mm 1 mps 674 mmHg 90%
23:00 +15°C° 0 mm 1 mps 674 mmHg 90%

17 June, Thursday

Time Temperature Precipitation Wind Pressure Humidity
00:00 +13°C° 0 mm 0 mps 674 mmHg 90%
01:00 +13°C° 0 mm 0 mps 673 mmHg 89%
02:00 +13°C° 0 mm 0 mps 673 mmHg 89%
03:00 +13°C° 0 mm 0 mps 673 mmHg 88%
04:00 +13°C° 0 mm 0 mps 673 mmHg 88%
05:00 +14°C° 0 mm 0 mps 674 mmHg 84%
06:00 +15°C° 0 mm 0 mps 674 mmHg 80%
07:00 +16°C° 0 mm 0 mps 675 mmHg 76%
08:00 +20°C° 0 mm 1 mps 675 mmHg 67%
09:00 +22°C° 0 mm 1 mps 676 mmHg 58%
10:00 +24°C° 0 mm 1 mps 676 mmHg 48%
11:00 +25°C° 0 mm 1 mps 676 mmHg 45%
12:00 +26°C° 0 mm 2 mps 676 mmHg 42%
13:00 +26°C° 0 mm 2 mps 676 mmHg 39%
14:00 +25°C° 0 mm 3 mps 676 mmHg 42%
15:00 +24°C° 0 mm 3 mps 676 mmHg 45%
16:00 +24°C° 0 mm 3 mps 676 mmHg 48%
17:00 +21°C° 0 mm 3 mps 676 mmHg 52%
18:00 +20°C° 0 mm 2 mps 675 mmHg 56%
19:00 +19°C° 0 mm 2 mps 675 mmHg 61%
20:00 +18°C° 0 mm 1 mps 675 mmHg 65%
21:00 +16°C° 0 mm 1 mps 675 mmHg 69%
22:00 +15°C° 0 mm 1 mps 675 mmHg 73%
23:00 +15°C° 0 mm 1 mps 675 mmHg 71%

18 June, Friday

Time Temperature Precipitation Wind Pressure Humidity
00:00 +15°C° 0 mm 1 mps 675 mmHg 70%
01:00 +15°C° 0 mm 1 mps 674 mmHg 68%
02:00 +15°C° 0 mm 1 mps 675 mmHg 69%
03:00 +15°C° 0 mm 1 mps 675 mmHg 71%
04:00 +13°C° 0 mm 0 mps 675 mmHg 72%
05:00 +15°C° 0 mm 1 mps 675 mmHg 68%
06:00 +16°C° 0 mm 1 mps 675 mmHg 65%
07:00 +18°C° 0 mm 1 mps 676 mmHg 61%
08:00 +20°C° 0 mm 1 mps 676 mmHg 54%
09:00 +23°C° 0 mm 1 mps 677 mmHg 46%
10:00 +25°C° 0 mm 2 mps 677 mmHg 39%
11:00 +26°C° 0 mm 2 mps 677 mmHg 37%
12:00 +27°C° 0 mm 2 mps 677 mmHg 34%
13:00 +28°C° 0 mm 2 mps 677 mmHg 32%
14:00 +28°C° 0 mm 3 mps 677 mmHg 32%
15:00 +28°C° 0 mm 3 mps 677 mmHg 32%
16:00 +28°C° 0 mm 4 mps 677 mmHg 32%
17:00 +26°C° 0 mm 3 mps 677 mmHg 38%
18:00 +24°C° 0 mm 3 mps 676 mmHg 45%
19:00 +21°C° 0 mm 2 mps 676 mmHg 52%
20:00 +19°C° 0 mm 2 mps 676 mmHg 58%
21:00 +18°C° 0 mm 1 mps 676 mmHg 64%
22:00 +15°C° 0 mm 1 mps 675 mmHg 70%
23:00 +15°C° 0 mm 1 mps 675 mmHg 70%

19 June, Saturday

Time Temperature Precipitation Wind Pressure Humidity
00:00 +15°C° 0 mm 1 mps 675 mmHg 69%
01:00 +14°C° 0 mm 1 mps 675 mmHg 69%
02:00 +14°C° 0 mm 1 mps 675 mmHg 68%
03:00 +13°C° 0 mm 0 mps 675 mmHg 68%
04:00 +13°C° 0 mm 0 mps 675 mmHg 67%
05:00 +14°C° 0 mm 0 mps 675 mmHg 63%
06:00 +18°C° 0 mm 1 mps 676 mmHg 58%
07:00 +20°C° 0 mm 1 mps 676 mmHg 53%
08:00 +22°C° 0 mm 1 mps 676 mmHg 47%
09:00 +24°C° 0 mm 1 mps 677 mmHg 41%
10:00 +27°C° 0 mm 1 mps 677 mmHg 35%
11:00 +28°C° 0 mm 1 mps 677 mmHg 33%
12:00 +29°C° 0 mm 1 mps 677 mmHg 31%
13:00 +30°C° 0 mm 1 mps 677 mmHg 29%
14:00 +30°C° 0 mm 2 mps 677 mmHg 29%
15:00 +31°C° 0 mm 2 mps 677 mmHg 29%
16:00 +31°C° 0 mm 3 mps 677 mmHg 28%
17:00 +28°C° 0 mm 2 mps 676 mmHg 36%
18:00 +26°C° 0 mm 2 mps 676 mmHg 43%
19:00 +24°C° 0 mm 2 mps 675 mmHg 50%
20:00 +22°C° 0 mm 1 mps 675 mmHg 53%
21:00 +21°C° 0 mm 1 mps 675 mmHg 57%
22:00 +19°C° 0 mm 1 mps 675 mmHg 60%
23:00 +19°C° 0 mm 1 mps 674 mmHg 60%
Show more